User: anonymous
Location: Ostrava
(49.8330°N, 18.2830°E)
Time: 23:33:03
(UTC+02:00)
Language:

Lacrosse 5 - Orbit

View from above orbital plane
View from above orbital plane
View from above satellite
View from above satellite

Ground track
Ground track

The orbit data is extracted from the following two-line orbital elements,

1 28646U 05016A   14109.95668905 0.00000250  00000-0  59320-4 0    04
2 28646  57.0110 116.1400 0009000 161.5760 198.4240 14.53636529    02
Epoch (UTC): 19 April 2014 22:57:37
Eccentricity: 0.0009000
inclination: 57.0110°
perigee height: 707 km
apogee height: 720 km
right ascension of ascending node: 116.1400°
argument of perigee: 161.5760°
revolutions per day: 14.53636529
mean anomaly at epoch: 198.4240°
orbit number at epoch: 0

The dashed part of the orbit path shows where the satellite is in the earth's shadow,  

DLR